User: anonymous   Login
Location: Oberwangen
(47.4286°N, 8.9679°E)
Time: 06:55:39
(UTC+00:00)
Language:

Lacrosse 5 rocket - Orbit

View from above orbital plane
View from above orbital plane
View from above satellite
View from above satellite

Ground track
Ground track

The orbit data is extracted from the following two-line orbital elements,

1 28647U 05016B   21265.40570555  .00000310  00000-0  35963-4 0  9990
2 28647  56.9974 161.0867 0118472 256.7227 102.0576 15.06571327129563
Epoch (UTC): 22 September 2021 09:44:12
Eccentricity: 0.0118472
inclination: 56.9974°
perigee height: 464 km
apogee height: 629 km
right ascension of ascending node: 161.0867°
argument of perigee: 256.7227°
revolutions per day: 15.06571327
mean anomaly at epoch: 102.0576°
orbit number at epoch: 12956

The dashed part of the orbit path shows where the satellite is in the earth's shadow,  

DLR